Flag for Germany Weather past 2 weeks in Melsungen, Hesse, Germany

Now
76 °F

Overcast.


Feels Like: 78 °F
Forecast: 57 / 81 °F
Wind: 8 mph from Southwest

Location: Fritzlar

Current Time: Aug 4, 2015 at 4:45:27 PM

Latest Report: Aug 4, 2015 at 4:00 PM


Visibility: 6 mi

Pressure: 29.94 "Hg

Humidity: 53%

Dew point: 58 °F

Location of MelsungenLocation

Historic Weather in Melsungen — Graph

°F

Melsungen temperature yesterday

Maximum temperature yesterday: 88 °F (at 4:00 PM)
Minimum temperature yesterday: 55 °F (at 7:00 AM)
Average temperature yesterday: 73 °F

Past Weeks' High & Low Weather Summary

 TemperatureHumidityPressure
High88 °F (Aug 3, 4:00 PM)98% (Jul 21, 1:00 AM)30.15 "Hg (Jul 21, 1:00 AM)
Low45 °F (Jul 31, 5:00 AM)27% (Aug 2, 6:00 PM)29.58 "Hg (Jul 25, 10:00 AM)
Average65 °F66%29.90 "Hg
* Reported Jul 20 3:00 PM — Aug 4 3:00 PM, Melsungen, Weather by CustomWeather, © 2015

Note: Actual official high and low records may vary slightly from our data, if they occured in-between our weather recording intervals... More about our weather records

Advertising

Melsungen weather history for previous 24 hours

 ConditionsComfort  
Time TempWeatherWind HumidityBarometerVisibility
3:00 PM
Tue, Aug 4
79 °FOvercast.10 mph46%29.89 "Hg25 mi
2:00 PM82 °FOvercast.8 mph43%29.86 "Hg25 mi
1:00 PM85 °FOvercast.10 mph37%29.85 "Hg25 mi
12:00 PM87 °FOvercast.7 mph37%29.83 "Hg25 mi
11:00 AM82 °FOvercast.5 mph45%29.85 "Hg19 mi
10:00 AM76 °FOvercast.2 mph53%29.87 "Hg19 mi
9:00 AM72 °FPartly sunny.N/A65%29.89 "Hg16 mi
8:00 AM64 °FPartly sunny.1 mph77%29.90 "Hg16 mi
7:00 AM58 °FScattered clouds.2 mph89%29.93 "Hg16 mi
5:00 AM59 °FPassing clouds.3 mph85%29.94 "Hg19 mi
4:00 AM59 °FPassing clouds.2 mph85%29.95 "Hg19 mi
3:00 AM60 °FPassing clouds.2 mph84%29.96 "Hg19 mi
2:00 AM63 °FPassing clouds.3 mph75%29.96 "Hg19 mi
1:00 AM63 °FPassing clouds.1 mph78%29.97 "Hg19 mi
12:00 AM66 °FPassing clouds.2 mph71%29.97 "Hg19 mi
11:00 PM
Mon, Aug 3
66 °FPassing clouds.1 mph74%29.96 "Hg19 mi
10:00 PM69 °FPassing clouds.1 mph67%29.96 "Hg22 mi
9:00 PM76 °FScattered clouds.1 mph51%29.94 "Hg25 mi
8:00 PM85 °FPassing clouds.3 mph35%29.93 "Hg25 mi
7:00 PM87 °FPassing clouds.5 mph30%29.93 "Hg25 mi
6:00 PM88 °FScattered clouds.5 mph29%29.95 "Hg25 mi
5:00 PM88 °FPassing clouds.5 mph30%29.96 "Hg25 mi
4:00 PM88 °FPassing clouds.6 mph29%29.97 "Hg22 mi
Weather by CustomWeather, © 2015

See weather overviewHow to use our weather pages